CST,Max TemperatureF,Mean TemperatureF,Min TemperatureF,Max Dew PointF,MeanDew PointF,Min DewpointF,Max Humidity, Mean Humidity, Min Humidity, Max Sea Level PressureIn, Mean Sea Level PressureIn, Min Sea Level PressureIn, Max VisibilityMiles, Mean VisibilityMiles, Min VisibilityMiles, Max Wind SpeedMPH, Mean Wind SpeedMPH, Max Gust SpeedMPH,PrecipitationIn, CloudCover, Events, WindDirDegrees
2012-2-1,57,46,35,25,20,14,65,41,25,30.20,30.14,30.09,10,10,10,13,5,21,0.00,2,,100
2012-2-2,55,44,34,45,35,19,100,73,28,30.14,29.99,29.91,10,8,4,23,11,30,0.14,5,Rain-Thunderstorm,113
2012-2-3,41,37,33,40,36,30,100,96,87,30.20,30.03,29.89,10,5,0,23,16,29,0.12,8,Fog-Rain-Snow,2
2012-2-4,36,31,26,30,28,23,92,84,73,30.48,30.36,30.17,10,10,8,26,20,36,0.00,6,,353
2012-2-5,43,31,19,21,18,12,92,64,32,30.52,30.45,30.29,10,10,10,9,6,,0.00,0,,301
2012-2-6,48,36,24,30,24,17,77,65,41,30.33,30.21,30.11,10,10,10,18,8,25,0.00,2,,188
2012-2-7,30,26,21,29,24,17,96,85,66,30.56,30.35,30.18,10,7,1,31,20,38,0.00,8,Rain-Snow,9
2012-2-8,27,23,19,23,20,16,93,85,80,30.55,30.40,30.24,10,10,8,15,7,,0.00,8,,143
2012-2-9,39,32,25,30,26,24,100,85,67,30.29,30.20,30.07,10,8,3,12,6,,0.00,6,,239
2012-2-10,34,26,17,26,17,10,88,72,54,30.52,30.34,30.18,10,10,10,20,13,20,0.00,1,,27
2012-2-11,21,14,8,10,6,3,85,71,50,30.75,30.61,30.49,10,8,2,16,12,,0.00,6,Snow,67
2012-2-12,30,23,16,22,15,9,85,74,49,30.59,30.18,29.83,10,10,10,30,19,40,0.00,7,,172
2012-2-13,46,34,21,27,22,19,93,75,42,29.88,29.75,29.62,10,10,8,29,19,37,0.00,3,,308
2012-2-14,52,36,21,37,29,19,100,81,46,29.91,29.80,29.71,10,8,0,18,7,21,0.00,1,Fog,185
2012-2-15,44,34,21,35,31,16,100,90,60,30.25,29.87,29.69,10,6,0,28,11,33,0.01,6,Fog-Rain,14
2012-2-16,48,33,18,25,19,14,88,64,27,30.36,30.25,30.14,10,10,10,17,8,24,0.00,0,,208
2012-2-17,50,38,25,30,27,23,92,72,44,30.15,30.09,30.00,10,10,5,22,8,,0.00,1,,79
2012-2-18,46,34,23,28,21,16,93,67,31,30.25,30.13,30.05,10,10,8,23,15,29,0.00,4,,78
2012-2-19,50,41,32,38,34,28,100,82,59,30.07,29.87,29.69,10,8,2,34,16,43,0.00,6,,176
2012-2-20,44,35,26,39,30,18,96,79,53,30.01,29.72,29.58,10,7,0,39,23,47,0.03,5,Fog-Snow,286
2012-2-21,52,36,21,26,20,17,82,56,26,30.04,29.93,29.80,10,10,10,12,7,,0.00,0,,207
2012-2-22,72,50,28,30,24,20,79,44,14,29.79,29.59,29.29,10,10,10,16,9,26,0.00,0,,257
2012-2-23,46,37,26,32,21,13,79,52,27,30.10,29.68,29.28,10,10,10,36,17,43,0.00,2,,330
2012-2-24,50,36,21,18,12,4,78,48,15,30.33,30.24,30.12,10,10,10,26,12,40,0.00,0,,309
2012-2-25,66,44,21,18,13,10,63,29,12,30.32,29.88,29.65,10,7,2,40,18,54,0.00,4,,189
2012-2-26,55,40,24,20,6,-4,75,32,10,30.28,30.01,29.76,10,10,10,23,12,30,0.00,0,,10
2012-2-27,42,34,25,31,18,5,66,51,40,30.43,30.28,30.07,10,10,10,20,12,28,0.00,6,,111
2012-2-28,69,55,39,52,37,6,100,67,13,30.08,29.72,29.45,10,4,0,46,21,63,0.02,7,Fog-Rain,195
2012-2-29,60,44,28,17,13,6,61,31,13,29.96,29.86,29.72,10,10,10,17,12,22,0.00,0,,261